Preview of NWS' New Version of Forecast
This preview is not operational and should not be used for support decisions.
Latest weather observations around

Windsor Locks, Bradley International Airport (KBDL)

Using English Units (Switch to International System of Units)
Date/ Time (EDT) Wind (mph) Vis. (mi) Weather Sky Cond. Temp (°F) Rel. Humidity Wind Chill (°F) Heat Index (°F) Pressure Precip. (in)
Air Dwpt 6 hour Altimeter (inHg) Sea level (inHg) 1 hr 3 hr 6 hr
Max Min
Apr 20 22:44 SSE 11 10 Cloudy FEW016 SCT023 OVC070 60 55     83%     29.92        
Apr 20 21:51 S 9 10 Mostly Cloudy BKN016 BKN070 BKN220 BKN250 61 56     83%     29.9 29.9      
Apr 20 21:27 S 8 10 Mostly Cloudy BKN015 BKN070 BKN085 BKN220 62 57     84%     29.89        
Apr 20 20:51 S 10 10 Mostly Cloudy FEW014 SCT021 SCT080 BKN220 63 58     84%     29.88 29.88      
Apr 20 20:15 S 15 10 Cloudy BKN012 OVC021 63 60     90%     29.87        
Apr 20 19:51 S 17 10 Cloudy BKN007 BKN012 OVC031 64 61     90%     29.87 29.86     0
Apr 20 18:51 S 13 10 Cloudy BKN007 OVC010 64 61     90%     29.84 29.84 0    
Apr 20 18:48 S 11 9 Cloudy OVC007 64 61     88%     29.84   0    
Apr 20 17:57 S 11 2 Light Rain and Fog/Mist BKN008 OVC013 65 62     90%     29.84   0    
Apr 20 17:51 S 15 2 Light Rain and Fog/Mist OVC010 65 62     90%     29.85 29.84 0    
Apr 20 17:42   2 Cloudy OVC010 65 62     90%     29.84   0    
Apr 20 17:07 S 17 10 Cloudy OVC014 66 63     90%     29.83   0    
Apr 20 16:51 S 20 5 Light Rain and Fog/Mist BKN016 OVC020 67 63     87%     29.81 29.81 0 0  
Apr 20 15:51 S 18 10 Cloudy BKN018 OVC024 68 61     78%     29.81 29.8      
Apr 20 14:51 S 16 10 Cloudy BKN016 BKN020 BKN055 OVC200 69 62     78%     29.8 29.8      
Apr 20 14:10   10 Cloudy SCT013 BKN015 OVC025 68 62     81%     29.83        
Apr 20 13:51   10 Cloudy BKN014 OVC018 68 62     81%     29.82 29.82 0   1
Apr 20 12:51   10 Cloudy SCT011 BKN014 OVC039 68 63     84%     29.82 29.81 0    
Apr 20 11:51 S 14 3 Light Rain and Fog/Mist SCT008 BKN011 OVC033 68 65     90%     29.82 29.81 0    
Apr 20 10:51 S 15 10 Light Rain SCT008 OVC011 67 64     90%     29.81 29.81 0 1  
Apr 20 09:51 S 9 3 Rain and Fog/Mist SCT008 BKN012 OVC025 65 62     90%     29.81 29.81 0    
Apr 20 09:29 SSE 8 3 Light Rain and Fog/Mist SCT008 BKN012 OVC025 64 62     93%     29.8   0    
Apr 20 09:07 SSE 7 1.5 Heavy Rain and Fog/Mist BKN006 BKN011 OVC018 64 62     93%     29.8   0    
Apr 20 08:58 S 10 3 Light Rain and Fog/Mist BKN006 OVC011 64 62     93%     29.8   0    
Apr 20 08:51 S 11 2.5 Rain and Fog/Mist BKN006 OVC011 64 62     93%     29.79 29.79 0    
Apr 20 08:40 S 7 2.5 Rain and Fog/Mist OVC006 65 62     90%     29.81   0    
Apr 20 07:51 S 10 10 Light Rain BKN008 OVC011 65 62     90%     29.78 29.78 0   0
Apr 20 06:51 S 11 10 Cloudy BKN007 OVC016 65 62     90%     29.76 29.76 0    
Apr 20 05:51 SSE 9 7 Light Rain BKN006 OVC018 63 61     93%     29.76 29.75 0    
Apr 20 05:11 S 10 10 Cloudy BKN009 BKN017 OVC037 64 61     90%     29.75   0    
Apr 20 05:05 S 10 10 Cloudy SCT008 BKN017 OVC055 64 61     90%     29.75   0    
Apr 20 04:51 S 13 5 Light Rain and Fog/Mist FEW006 SCT014 OVC035 63 61     93%     29.74 29.74 0 0  
Apr 20 04:43 S 16 2 Heavy Rain and Fog/Mist FEW009 BKN033 OVC070 64 61     90%     29.75   0    
Apr 20 04:34 S 14 8 Light Rain SCT009 BKN050 OVC065 64 61     90%     29.74   0    
Apr 20 03:55 S 18 9 Light Rain BKN010 BKN016 OVC050 65 62     90%     29.74   0    
Apr 20 03:51 S 16 9 Light Rain SCT010 BKN016 BKN050 OVC140 65 62     90%     29.74 29.73 0    
Apr 20 03:42 S 17 10 Cloudy FEW012 SCT018 BKN050 BKN140 OVC250 66 63     90%     29.74   0    
Apr 20 03:01 S 18 7 Light Rain SCT013 BKN018 OVC029 67 63     87%     29.72   0    
Apr 20 02:51   7 Light Rain BKN013 BKN018 OVC026 68 64     87%     29.72 29.72 0    
Apr 20 01:51   8 Light Rain FEW004 BKN010 OVC022 68 64     87%     29.73 29.72 0   0
Apr 20 00:51   5 Light Rain and Fog/Mist FEW005 BKN010 OVC015 67 64     90%     29.74 29.73 0    
Apr 19 23:51   7 Light Rain SCT006 OVC011 67 64     90%     29.74 29.73 0    
Apr 19 22:51 S 14 6 Light Rain and Fog/Mist OVC009 66 62     87%     29.76 29.75 0 0  
Apr 19 22:26   6 Fog/Mist OVC009 66 62     87%     29.77   0    
Apr 19 21:51 S 16 8 Light Rain OVC011 66 62     87%     29.78 29.78 0    
Apr 19 21:11   9 Light Rain BKN014 OVC020 67 62     84%     29.78   0    
Apr 19 20:51   9 Cloudy BKN015 OVC022 68 62     81%     29.79 29.78      
Apr 19 19:51 S 16 10 Cloudy BKN023 BKN090 OVC250 70 61     73%     29.77 29.77      
Apr 19 18:51 S 18 10 Mostly Cloudy BKN029 BKN090 BKN250 72 61     68%   72 29.76 29.75      
Apr 19 18:48 S 17 10 Mostly Cloudy BKN029 BKN090 BKN250 72 61     69%   72 29.75        
Apr 19 17:51 S 20 10 Mostly Cloudy and Windy FEW055 BKN085 BKN140 BKN250 73 61     66%   73 29.75 29.75      
Apr 19 16:51 S 23 10 Mostly Cloudy and Windy SCT040 SCT055 BKN130 BKN250 74 60     62%   74 29.73 29.73      
Apr 19 15:51   10 Mostly Cloudy BKN037 BKN050 BKN070 76 60     58%   76 29.74 29.74      
Apr 19 14:51 S 22 10 Cloudy and Windy BKN042 BKN055 OVC070 75 59     57%   75 29.74 29.74      
Apr 19 13:51   10 Mostly Cloudy SCT040 BKN050 BKN080 BKN200 75 59     57%   75 29.75 29.75      
Apr 19 12:51   10 Mostly Cloudy FEW025 BKN039 BKN180 BKN250 76 59     56%   76 29.76 29.76      
Apr 19 12:09 SSW 16 10 Mostly Cloudy SCT025 BKN033 BKN180 BKN220 73 58     59%   73 29.79        
Apr 19 11:51 SW 17 10 Mostly Cloudy BKN023 BKN031 BKN160 72 59     64%   72 29.8 29.8      
Apr 19 10:51 SSW 13 10 Cloudy OVC019 67 58     73%     29.82 29.82      
Apr 19 09:51 S 14 10 Cloudy BKN019 BKN060 OVC200 66 58     75%     29.81 29.8      
Apr 19 08:51 S 13 10 Mostly Cloudy BKN024 BKN070 BKN200 64 57     78%     29.8 29.79      
Apr 19 07:51 S 15 10 Cloudy BKN019 OVC200 62 57     84%     29.82 29.82      
Apr 19 06:51 SSW 11 10 Cloudy BKN016 OVC200 60 56     86%     29.82 29.82      
Apr 19 06:22 S 10 10 Mostly Cloudy BKN016 BKN200 59 55     87%     29.81        
Apr 19 05:51 S 14 10 Mostly Cloudy SCT015 SCT190 BKN250 59 55     87%     29.81 29.81      
Apr 19 04:51 S 11 10 Mostly Cloudy FEW016 BKN250 58 54     87%     29.81 29.81      
Notice The following observation data may not be complete
Apr 19 03:51 N 3 10 Mostly Cloudy FEW015 BKN250   44      %     29.82 29.82      
Apr 19 03:02 Calm 10 Mostly Cloudy SCT015 BKN250 47 45     93%     29.82        
Apr 19 02:51 Calm 10 Cloudy BKN015 OVC250 47 46     97%     29.83 29.83      
Apr 19 01:51 Calm 6 Fog/Mist BKN012 OVC250 46 44     93%     29.85 29.85     0
Apr 19 01:45 Calm 5 Fog/Mist BKN013 OVC250 46 45     93%     29.85        
Apr 19 01:09 Calm 5 Fog and Fog/Mist SCT015 BKN240 46 45     96%     29.87        
Apr 19 00:51 Calm 3 Fog/Mist SCT015 BKN018 BKN250 46 45     96%     29.87 29.87      
Apr 19 00:09 Calm 4 Fog/Mist SCT015 BKN190 48 47     96%     29.87        
Apr 18 23:51 Calm 3 Fog/Mist BKN015 BKN190 48 46     93%     29.88 29.88      
Apr 18 23:46 Calm 3 Fog/Mist BKN016 48 46     93%     29.88        
Apr 18 23:17 Calm 2 Fog/Mist FEW003 SCT009 BKN130 49 47     93%     29.89        
Apr 18 22:51 Calm 2 Fog/Mist FEW003 BKN009 OVC130 49 47     93%     29.9 29.9   0  
Apr 18 22:41 Calm 2 Fog/Mist SCT003 BKN009 OVC120 49 47     93%     29.89        
Apr 18 22:08 Calm 2 Fog/Mist BKN004 OVC120 49 47     93%     29.91        
Apr 18 21:51 Calm 2 Fog/Mist SCT005 BKN010 OVC120 49 47     93%     29.91 29.91      
Apr 18 21:24 N 5 2 Fog/Mist SCT003 BKN005 OVC008 49 47     93% 47   29.92        
Apr 18 20:51 Calm 2 Fog/Mist FEW002 BKN004 OVC007 49 47     93%     29.93 29.93 0    
Apr 18 20:42 Calm 2 Fog/Mist FEW002 BKN004 OVC007 49 47     93%     29.93   0    
Apr 18 19:51 NNW 5 2 Light Drizzle and Fog/Mist OVC007 49 47     93% 47   29.94 29.94 0   0
Apr 18 19:36 NNW 5 4 Light Drizzle and Fog/Mist OVC009 49 47     93% 47   29.95   0    
Apr 18 18:51 N 6 6 Light Drizzle and Fog/Mist OVC010 49 47     93% 46   29.97 29.97 0    
Apr 18 17:51 NNW 3 6 Light Rain and Fog/Mist OVC013 50 47     89%     30 30 0    
Apr 18 16:51 E 3 9 Light Rain and Fog/Mist OVC013 50 46     86%     30.03 30.03 0 0  
Apr 18 16:00 SE 8 3 Light Rain and Fog/Mist FEW009 OVC014 49 46     90% 45   30.07   0    
Apr 18 15:51 SE 7 3 Light Rain and Fog/Mist OVC015 49 46     90% 46   30.07 30.08 0    
Apr 18 14:51 SSE 14 6 Light Rain and Fog/Mist OVC020 50 44     80%     30.1 30.11 0    
Apr 18 14:03 SE 11 10 Cloudy BKN029 OVC038 51 40     65%     30.12        
Apr 18 13:51 SE 10 10 Cloudy FEW020 OVC031 51 39     63%     30.12 30.12 0   0
Apr 18 12:51   10 Light Rain OVC034 51 40     65%     30.15 30.15 0    
Apr 18 11:51 S 15 10 Cloudy OVC044 53 37     54%     30.17 30.17      
Apr 18 10:51 SSE 14 10 Cloudy OVC047 52 38     59%     30.17 30.17   0  
Apr 18 09:51 SSE 6 10 Cloudy OVC050 49 38     66% 46   30.19 30.19 0    
Apr 18 08:51 SE 6 10 Cloudy OVC050 47 37     68% 44   30.2 30.2      
Apr 18 07:51 SE 6 10 Cloudy OVC060 47 38     71% 44   30.21 30.21     0
Apr 18 06:51 ESE 6 10 Mostly Cloudy BKN070 BKN250 45 38     76% 42   30.21 30.21      
Apr 18 05:51 Calm 10 Cloudy BKN065 OVC100 43 39     86%     30.22 30.22 0    
Apr 18 04:51 SSE 5 10 Cloudy BKN070 OVC090 44 38     79% 41   30.22 30.22 0 0  
Apr 18 03:51 S 6 10 Cloudy BKN070 OVC095 45 33     63% 42   30.22 30.22      
Apr 18 02:51 S 6 10 Mostly Cloudy SCT095 SCT150 BKN250 43 32     65% 39   30.22 30.22      
Apr 18 01:51 SSE 7 10 Mostly Cloudy FEW070 FEW150 BKN250 43 31     62% 39   30.22 30.22      
Apr 18 00:51 S 7 10 Partly Cloudy SCT250 45 29     53% 41   30.24 30.24      
Apr 17 23:51 S 10 10 Mostly Cloudy BKN250 47 30     52% 42   30.24 30.24      
May 15 09:43 S 10 2 Haze OVC005 65 60     84%     29.86        
May 14 11:51 7 10 Mostly Cloudy BKN022 62 52     70%     30 30      
May 13 20:00 SSW 8 10 Cloudy BKN014 OVC100 54 49     83%     30.1        
May 13 17:51 SW 9 10 Mostly Cloudy FEW025 SCT110 BKN130 57 48     72%     30.1 30.1      
Jun 10 10:51 SSW 9 10 Mostly Cloudy FEW070 SCT095 BKN250 80 53     39%   80 29.97 29.97      
Jun 07 15:51 6 10 Mostly Clear FEW060 FEW080 74 45     36%   73 29.95 29.94      
Jun 07 09:51 N 10 10 Mostly Cloudy FEW020 BKN055 58 49     72%     29.99 29.99